Regional Weather Roundup
Issued by NWS

Home | Current Version | Previous Version | Text Only | Print | Product List | Glossary Off
Versions: 1 2 3 4 5 6 7 8 9 10 11 12 13 14 15 16 17 18 19 20 21 22 23 24 25 26 27 28 29 30 31 32 33 34 35 36 37 38 39 40 41 42 43 44 45 46 47 48 49 50

089
ASUS43 KDTX 060410
RWRMI
MICHIGAN HOURLY REGIONAL WEATHER ROUNDUP
NATIONAL WEATHER SERVICE DETROIT/PONTIAC MI
1100 PM EST MON DEC 05 2016

NOTE: "FAIR" INDICATES FEW OR NO CLOUDS BELOW 12,000 FEET WITH NO
SIGNIFICANT WEATHER AND/OR OBSTRUCTION TO VISIBILITY.

MIZ047>049-052>055-059>063-066>070-074>076-081>083-060500-
SOUTHEAST LOWER MICHIGAN

CITY           SKY/WX    TMP DP  RH WIND       PRES   REMARKS
ADRIAN         CLEAR     27  27 100 NE5       30.03F WCI  22
ALMA           PTCLDY    32  30  92 SW6       30.05R WCI  26
ANN ARBOR      CLEAR     23  22  96 CALM      30.04S FOG
BAD AXE        PTCLDY    30  28  95 CALM      30.07S
CARO           CLOUDY    28  28  97 CALM      30.06R
DETROIT CITY   CLEAR     29  27  92 E3        30.07S
DETROIT        PTCLDY    31  28  89 E3        30.07S
FLINT          CLEAR     29  27  92 S3        30.06F
GROSSE ILE     CLEAR     31  28  91 NE6       30.06R WCI  25
HILLSDALE      CLEAR     28  27  93 E5        29.99F FOG     WCI  23
HOWELL         CLEAR     26  25  95 CALM      30.03S FOG

CITY           SKY/WX    TMP DP  RH WIND       PRES   REMARKS
JACKSON        CLOUDY    27  25  92 E3        30.02S FOG
LAMBERTVILLE   CLEAR     27  25  92 CALM      30.04F FOG
LANSING        CLEAR     27  24  89 E5        30.03F WCI  22
LAPEER         NOT AVBL
MASON          CLEAR     27  27  97 CALM      30.03S FOG
MONROE         CLEAR     26  26  99 CALM      30.04F FOG
MT. CLEMENS    PTCLDY    28  26  93 CALM      30.05F
PONTIAC        CLEAR     26  23  88 NE3       30.04S FOG
PORT HOPE        N/A     32  29  88 SW6       30.05F WCI  26
PORT HURON     CLEAR     25  25 100 CALM      30.07F
TRI CITIES     CLOUDY    33  30  88 S5        30.06R WCI  29
MIDLAND        FAIR      32  30  92 CALM      30.05R
TROY           CLEAR     31  28  88 CALM      30.08S
SAGINAW HB     CLOUDY    32  28  86 SE5       30.06R WCI  27
$$
MIZ043>046-050>051-056>058-064>065-071>073-077>080-060500-
SOUTHWEST LOWER MICHIGAN

CITY           SKY/WX    TMP DP  RH WIND       PRES   REMARKS
BATTLE CREEK   CLOUDY    30  28  92 E3        30.01F
BENTON HARBOR  CLOUDY    32  29  88 SE8       29.99F FOG     WCI  25
BIG RAPIDS     PTCLDY    33  31  92 S3        30.00S FOG
COLDWATER      CLEAR     27  26  98 CALM      30.00F FOG
FREMONT        FAIR      33  29  86 CALM      30.00F
HOLLAND        CLEAR     31  28  89 E8        30.00F WCI  23
GRAND RAPIDS   PTCLDY    30  27  88 SE6       30.02S WCI  24
IONIA          FAIR      29  28  94 E5        30.02F WCI  24
KALAMAZOO      PTCLDY    30  26  85 CALM      30.01F FOG
LUDINGTON      CLOUDY    37  34  89 SE8       29.98R WCI  31
MARSHALL       CLEAR     27  27  98 CALM      30.01S FOG
MOUNT PLEASANT CLOUDY    32  31  96 S3        30.03R FOG
MUSKEGON       CLOUDY    33  29  85 E8        30.00F WCI  26
SOUTH HAVEN    CLOUDY    32  31  96 SE6       29.99F WCI  26
$$
MIZ016>042-060500-
NORTHERN LOWER MICHIGAN

CITY           SKY/WX    TMP DP  RH WIND       PRES   REMARKS
ALPENA         CLOUDY    34  29  82 CALM      30.05R
BEAVER ISLAND  CLOUDY    41  36  81 SW5       29.96S
BELLAIRE       PTCLDY    29  28  99 CALM      30.00S
CADILLAC       PTCLDY    32  31  95 S5        29.98R WCI  28
CHARLEVOIX     PTCLDY    35  32  90 SE6       30.01F WCI  30
FRANKFORT      CLOUDY    37  34  87 SE6       29.98R WCI  33
GAYLORD        PTCLDY    29  25  85 S5        29.99S FOG     WCI  24
GRAYLING       FOG       24  23  96 CALM      30.00F VSB 1/4
HARBOR SPRINGS PTCLDY    35  31  85 CALM      29.99F
HOUGHTON LAKE  PTCLDY    28  27  96 SE3       30.01S
MANISTEE       CLOUDY    34  32  92 E6        29.98S WCI  29
OSCODA           N/A     28  27  95 MISG      30.05S FOG
PELLSTON       CLOUDY    34  30  85 SE5       29.99F WCI  30
ROGERS CITY    MOCLDY    36  31  83 S3        30.04F
TRAVERSE CITY  CLOUDY    34  30  85 VRB3      29.98F
$$
MIZ007>008-015-060500-
EASTERN UPPER MICHIGAN

CITY           SKY/WX    TMP DP  RH WIND       PRES   REMARKS
KINROSS        MOCLDY    29  29 100 SE9       29.99S WCI  20
MACKINAC ISLAN CLOUDY    37  32  82 S6        29.97F WCI  32
NEWBERRY       PTCLDY    29  28  97 CALM      29.95S
S. S. MARIE    CLOUDY    33  30  88 E5        29.98F WCI  29
MUNISING         N/A     34  32  92 S7        29.92S WCI  28
$$
MIZ004>006-011>014-085-060500-
CENTRAL UPPER MICHIGAN

CITY           SKY/WX    TMP DP  RH WIND       PRES   REMARKS
MANISTIQUE     CLOUDY    36  34  92 SW3       29.95R
ESCANABA       CLOUDY    34  32  92 S3        29.94F FOG
MENOMINEE      CLOUDY    35  33  92 S7        29.93S FOG     WCI  29
SAWYER-GWINN   CLOUDY    31  30  96 S7        29.88F WCI  24
$$
MIZ001>003-009>011-084-060500-
WESTERN UPPER MICHIGAN

CITY           SKY/WX    TMP DP  RH WIND       PRES   REMARKS
IRON MOUNTAIN  CLOUDY    32  29  88 SE6       29.85F WCI  26
HOUGHTON       CLOUDY    34  30  85 SE6       29.83F WCI  29
COPPER HARBOR    N/A     34  33  96 SW7       29.86F WCI  28
IRONWOOD       CLOUDY    37  31  78 S10G20    29.73F WCI  30
$$

ABBREVIATIONS USED IN REMARKS
   TC - TEMPERATURE IN CELSIUS
  WCI - WIND CHILL INDEX
   HX - HEAT INDEX
  VSB - VISIBILITY





USA.gov is the U.S. government's official web portal to all federal, state and local government web resources and services.